Погода в Орше

Погода в Орше : погода сейчас, прогноз погоды и архив. Всё, что Вы хотите узнать о погоде в Орше!

Хотите узнать прогноз погоды в Орше? Тогда Вам сюда: Погода в Орше

Поиск расширенной информации на нашем сайте:

Другие новости

Новости СМИ2

Главная страница сайта

Новости сайта

02.10.2013

Напоминаем, что на нашем новом сайте вы можете получить высокодетализированные прогнозы погоды по пунктам России, СНГ и мира (включающие важные для авиации метеовеличины, такие как направление и скорость ветра, видимость, явления погоды, количество и форма облачности, нижняя и верхняя граница облачности), а также ознакомиться с разнообразными материалами по авиационной метеорологии и подборкой полезных ссылок на эту тему.

Сайт Метеоцентр.Азия посвящён разработке технологий оптимизации авиаметеорологического обслуживания, включая проектирование и перспективное создание нескольких автоматизированных авиаметеорологических систем:
- система выпуска высокодетальных прогностических карт явлений погоды для нижнего воздушного пространства по России и ближнему зарубежью;
- система верификации прогнозов TAF (выпускаемых синоптиками официальных АМСГ РФ и ближнего зарубежья) и AUTOTAF (выпускаемых сайтом Метеоцентр.Азия) - выявление ошибок, онлайн-сопоставление с фактической погодой METAR, автоматическое внесение коррективов в прогнозы при резком отклонении фактической погоды от прогноза, подсчёт оправдываемости прогнозов по элементам и в целом;
- система обработки, анализа и отображения авиаметеорологической информации для применения провайдерами метеорологической информации.

Рекомендуем: Кредит в альфа банке наличными без справок альфа банк кредит без справок.

Погода в Орше - сегодня

Время (UTC), дата Ветер
(°,м/с) 
Видим.   Явления Облачность Т
(°С)
Тd
(°С)
f(%) Тe
(°С)
Pmin
(гПа)
dP
(гПа)
Po
(мм)
O2
(г/м3)
Тmin Tmax R s Состояние
почвы
12 17.02.17 220 (ЮЗ) 4400 м  дымка  10/10 210 м 
[St]
+1.6 +0.2 90 1013.9  -1.1  743  298           
15 17.02.17 230 (ЮЗ) 4700 м  дымка  10/10 240 м 
[St]
+2.1 +0.8 91 1013.6  -0.2  743  297           
18 17.02.17 240 (ЮЗ) 4500 м  дымка  10/10 240 м 
[St]
+2 +0.9 92 +1  1013.6  743  297    +2.2    14   
21 17.02.17 280 (З) 4800 м  дымка  10/10 240 м 
[St]
+1.7 +0.6 92 1014.1  0.4  743  298           
00 18.02.17 260 (З) 5000 м  дымка  10/10 270 м 
[St]
+1.4 +0.6 94 +1  1014.1  743  298           
03 18.02.17 270 (З) 6000 м  дымка  10/10 360 м 
[St]
+1.4 +0 90 1013.7  -0.4  743  298        13   
06 18.02.17 250 (З) 8000 м  дымка  10/10 330 м 
[St]
+1.3 +0.2 92 1014.1  0.4  743  298  +1.3      13  равномерный
мокрый или
старый снег
100% 
09 18.02.17 290 (З) 8000 м  дымка  10/10 270 м 
[St]
+1.9 +0.6 91 +1  1014.7  0.7  744  298           
12 18.02.17 260 (З) 8000 м  дымка  10/10 300 м 
[St]
+2.2 +0.6 89 +1  1015  0.3  744  297           
15 18.02.17 280 (З) 8000 м  дымка  10/10 480 м 
[St]
+2.1 -0.4 84 +1  1016.1  745  298           
18 18.02.17 280 (З) 10 км    9/9 420 м 
[St]
+0.9 -1.7 83 -1  1017.4  1.2  746  300    +2.3    12   
21 18.02.17 250 (З) 10 км    3/3 600 м 
[Sc]
-0.5 -2 90 -1  1018.4  0.8  746  301           
00 19.02.17 250 (З) 7000 м  дымка  8/8 240 м 
[St]
-1.5 -2.3 94 -3  1018.9  0.4  747  303           
03 19.02.17 250 (З) 8000 м  дымка  10/10 240 м 
[St]
-1.2 -2.2 93 -4  1018.9  747  302        12   
06 19.02.17 250 (З) 8000 м  дымка  10/10 270 м 
[St]
-0.3 -1.8 90 -3  1018.2  -0.6  746  301  -1.6      12  равномерный
мокрый или
старый снег
100% 
09 19.02.17 240 (ЮЗ) 10 км    10/10 360 м 
[St]
+1.3 -0.9 85 -1  1016.9  -1.1  745  299           
12 19.02.17 240 (ЮЗ) 7-10{13}  10 км    10/10 500 м 
[St]
+1.8 -1.6 78 -2  1015.8  -1.1  745  298           
15 19.02.17 250 (З) 8-11{14}  10 км    10/10 540 м 
[St]
+1.7 -1.4 80 -2  1014.3  -1.4  743  298           
18 19.02.17 240 (ЮЗ) 6{14}  10 км    10/10 500 м 
[St]
+1.4 -1.1 83 -2  1013.3  -1  743  298    +2    10   
21 19.02.17 220 (ЮЗ) 5{13}  10 км  в посл. час снег  10/10 420 м 
[St]
+1 -1.3 85 -2  1012.7  -0.6  742  298           
00 20.02.17 230 (ЮЗ) 5{11}  8000 м  слаб. снег  10/10 360 м 
[Frnb|Ns]
+1 -1 86 -2  1011.7  -1  742  298           
03 20.02.17 220 (ЮЗ) 5{11}  10 км  {снег}  10/10 270 м 
[St]
+1.1 -0.3 90 -2  1011  -0.7  741  297      0.0  10   
06 20.02.17 210 (ЮЗ) 5{11}  8000 м  дымка{снег}  10/10 300 м 
[St]
+1.2 -0.2 90 -2  1009.6  -1.3  740  297  +0.6    0.0  10  равномерный
мокрый или
старый снег
100% 
09 20.02.17 220 (ЮЗ) 4{11}  8000 м  дымка  10/10 500 м 
[St]
+2.2 -0.6 82 1008.1  -1.4  739  295           
12 20.02.17 210 (ЮЗ) 5{11}  8000 м  дымка  10/10 450 м 
[St]
+2.6 +0.2 84 1006.5  -1.6  738  294           
Время (UTC), дата Ветер
(°,м/с) 
Видим.   Явления Облачность Т
(°С)
Тd
(°С)
f(%) Тe
(°С)
Pmin
(гПа)
dP
(гПа)
Po
(мм)
O2
(г/м3)
Тmin Tmax R s Состояние
почвы

Для получения пояснительной информации подведите курсор к названию столбца.

ПОГОДА в Орше - архив

Всё, что Вы хотите узнать о погоде в Орше - удобно и подробно!

Выберите нужную дату (начиная с 1 января 2015* года) и нажмите кнопку "Найти".
Будут отображены архивные сводки погоды по пункту Орша, начиная с указанной даты.


Отображать данные в формате CSV (для использования в таблицах Excel)


Внимание! Наш архив погоды предназначен исключительно для личного некоммерческого использования в познавательных целях. Если Вам необходимы официальные справки о состоянии погоды (для производственных, юридических, коммерческих и т.п. целей), обращайтесь в органы Росгидромета.

*Примечание: данная дата относится к архиву по метеостанциям СССР (Россия, СНГ, Балтия).
Архив по метеостанциям Зарубежной Европы и Азии (кроме Китая) хранится 10 дней, по другим регионам земного шара (Китай, Африка, Америка, Австралия, Океания) - 1 день.

Орша - район местоположения метеостанции


Название, широта, долгота, высота метеостанции:
Орша 55°ш. 30.4°д. 185 м над ур. моря [Беларусь]

Дополнительная информация

В oтличие oт бoльшинства пoгoдных сайтoв мы публикуем пoдрoбную метеoинфoрмацию в детальнoм прoфессиoнальнoм фoрмате.

Характеристики температуры и влажнoсти вoздуха измеряются на высoте 2 м в тени вдали oт зданий и деревьев.
Скoрoсть ветра измеряется на высoте 10 м (на урoвне рoста челoвека скoрoсть ветра ниже в 1.5-2 раза). Если метеoстанция нахoдится в гoрoде или в лесу, тo скoрoсть ветра занижена на 2-4 м/с пo сравнению с oткрытым местoм. Скoрoсть ветра над акватoриями крупных рек и oзёр, а также на вершинах хoлмoв на 2-5 м/с выше, чем в oбычных услoвиях.
Атмoсфернoе давление в разных тoчках местнoсти мoжет значительнo oтличаться oт давления на метеoстанции, в зависимoсти oт услoвий рельефа (при пoдъёме на 10 м давление пoнижается примернo на 1 мм рт.ст.).